www.pogodaiklimat.ru

Погода и климат >> Архив погоды >> Норвегия >> Krakenes


ПОГОДА в Krakenes

  • Прогноз погоды в Krakenes
  • Монитор погоды в Krakenes
  • Климат города

АРХИВ ПОГОДЫ в Krakenes

Время (UTC), дата Ветер
(напр.,м/с)
 
Видим.   Явления Облачность Т
(С)
Тd
(С)
f
(%)
Тe
(С)
Тes
(С)
Комфортность P
(гПа)
Po
(гПа)
Тmin
(С)
Tmax
(С)
R
(мм)
R24
(мм)
S
(см)
02 15.10 ЮЗ 20
{24}
н/о н/о +11.7 +7.4 75 +7 +7 1009.3 1004.5
01 15.10 ЮЗ 20
{24}
н/о н/о +11.1 +6.9 75 +6 +6 1008.7 1003.9
03 15.10 ЮЗ 19
{21}
н/о н/о +11.8 +7.9 77 +7 +7 1009.6 1004.8
04 15.10 ЮЗ 17
{21}
н/о н/о +11.7 +7.8 77 +7 +7 1009.9 1005.1
05 15.10 ЮЗ 16
{18}
н/о н/о +11.8 +7.5 75 +7 +7 1009.7 1004.9
06 15.10 Ю 16
{24}
н/о н/о +9.6 +6.3 80 +4 +4 1009.5 1004.7 +9.6 +12.1
08 15.10 Ю 8
{15}
н/о н/о +8.7 +5.3 79 +4 +4 1009.2 1004.4
07 15.10 Ю 14
{18}
н/о н/о +9.6 +7.2 85 +4 +4 1009.5 1004.7
09 15.10 В 16
{10}
н/о н/о +8.4 +5.5 82 +5 +5 1007.6 1002.8
10 15.10 В 6
{11}
н/о н/о +8.5 +7.0 90 +4 +4 1005.4 1000.6
11 15.10 Ю 14
{18}
н/о н/о +12.9 +10.1 83 +9 +9 1002.9 998.2
12 15.10 Ю 19
{24}
н/о н/о +13.2 +11.1 87 +9 +9 1001.0 996.3
14 15.10 Ю 23
{28}
н/о н/о +13.2 +11.1 87 +8 +8 998.1 993.4
13 15.10 Ю 22
{25}
н/о н/о +13.1 +11.3 89 +8 +8 999.8 995.1
15 15.10 Ю 24
{29}
н/о н/о +13.1 +11.0 87 +8 +8 996.9 992.2
16 15.10 Ю 23
{29}
н/о н/о +12.8 +11.0 89 +8 +8 996.3 991.6
17 15.10 Ю 24
{29}
н/о н/о +12.8 +11.2 90 +8 +8 995.9 991.2
18 15.10 Ю 23
{29}
н/о н/о +13.0 +11.2 89 +8 +8 994.6 989.9 +8.2 +13.4
20 15.10 Ю 28
{33}
н/о н/о +14.0 +11.0 82 +9 +9 992.9 988.2
19 15.10 Ю 22
{30}
н/о н/о +13.7 +11.2 85 +9 +9 994.2 989.5
21 15.10 Ю 32
{38}
н/о н/о +14.1 +9.9 76 +9 +9 990.1 985.4
22 15.10 Ю 33
{42}
н/о н/о +12.4 +9.1 80 +6 +6 991.9 987.2
23 15.10 ЮЗ 25
{41}
н/о н/о +11.1 +9.5 90 +5 +5 996.9 992.2
00 16.10 З 18
{42}
н/о н/о +9.2 +7.2 87 +3 +3 1005.4 1000.6
02 16.10 З 8
{14}
н/о н/о +9.1 +6.2 82 +5 +5 1009.7 1004.9
01 16.10 З 13
{18}
н/о н/о +9.2 +5.8 79 +4 +4 1008.1 1003.3
03 16.10 З 8
{12}
н/о н/о +9.4 +5.4 76 +5 +5 1010.2 1005.4
04 16.10 З 7
{10}
н/о н/о +9.5 +5.3 75 +6 +6 1011.0 1006.2
05 16.10 ЮЗ 7
{12}
н/о н/о +8.7 +6.0 83 +4 +4 1011.3 1006.5
06 16.10 З 6
{18}
н/о н/о +9.4 +5.4 76 +6 +6 1011.8 1007.0 +8.3 +14.4
08 16.10 ЮЗ 8
{10}
н/о н/о +9.8 +4.0 67 +6 +6 1013.0 1008.2
07 16.10 З 7
{12}
н/о н/о +9.1 +4.9 75 +5 +5 1012.5 1007.7
09 16.10 ЮЗ 8
{12}
н/о н/о +9.5 +5.3 75 +5 +5 1013.7 1008.9
10 16.10 ЮЗ 8 н/о н/о +9.9 +6.1 77 +6 +6 1013.8 1009.0
11 16.10 ЮЗ 10
{16}
н/о н/о +8.8 +5.0 77 +4 +4 1014.1 1009.2
12 16.10 ЮЗ 12
{16}
н/о н/о +10.8 +4.7 66 +6 +6 1013.9 1009.1
14 16.10 ЮЗ 11
{17}
н/о н/о +9.3 +4.5 72 +4 +4 1014.7 1009.8
13 16.10 З 7
{18}
н/о н/о +8.9 +6.0 82 +5 +5 1015.5 1010.6
15 16.10 ЮЗ 9
{13}
н/о н/о +9.8 +6.0 77 +6 +6 1015.0 1010.2
16 16.10 Ю 7
{12}
н/о н/о +9.8 +6.3 79 +6 +6 1014.8 1010.0
17 16.10 З 6
{10}
н/о н/о +10.3 +6.3 76 +7 +7 1014.4 1009.6
18 16.10 Ю 8
{18}
н/о н/о +9.8 +6.3 79 +6 +6 1014.3 1009.5 +10.9
20 16.10 В 2
{6}
н/о н/о +9.2 +5.8 79 +8 +8 1013.8 1008.9
19 16.10 Ю 4
{9}
н/о н/о +9.9 +6.4 79 +7 +7 1014.5 1009.7
21 16.10 ЮЗ 2
{5}
н/о н/о +9.5 +5.1 74 +8 +8 1014.4 1009.5
22 16.10 В 5
{6}
н/о н/о +8.9 +5.3 78 +6 +6 1012.0 1007.2
23 16.10 В 6
{8}
н/о н/о +9.0 +4.8 75 +5 +5 1010.4 1005.6
00 17.10 В 7
{11}
н/о н/о +8.7 +4.0 72 +5 +5 1008.2 1003.4
02 17.10 В 8
{12}
н/о н/о +8.9 +4.7 75 +5 +5 1005.7 1000.9
01 17.10 В 5
{11}
н/о н/о +8.6 +4.2 74 +5 +5 1007.0 1002.2
03 17.10 СВ 7
{10}
н/о н/о +8.5 +4.9 78 +4 +4 1005.0 1000.2
04 17.10 СВ 11
{15}
н/о н/о +8.7 +4.9 77 +4 +4 1003.4 998.6
05 17.10 В 14
{18}
н/о н/о +8.3 +4.5 77 +2 +2 1002.1 997.3
06 17.10 В 14
{19}
н/о н/о +8.0 +4.8 80 +2 +2 1001.5 996.7 +7.8 +10.0
08 17.10 В 12
{15}
н/о н/о +7.9 +5.9 87 +2 +2 1001.0 996.2
07 17.10 СВ 12
{19}
н/о н/о +7.9 +5.0 82 +2 +2 1001.0 996.2
09 17.10 В 10
{13}
н/о н/о +7.9 +5.7 86 +3 +3 1001.0 996.2
10 17.10 СВ 10
{13}
н/о н/о +8.0 +5.8 86 +3 +3 1000.8 996.0
11 17.10 В 9
{14}
н/о н/о +8.1 +6.1 87 +3 +3 1001.1 996.3
12 17.10 СВ 9
{19}
н/о н/о +8.2 +5.8 85 +3 +3 1001.1 996.3
14 17.10 В 11
{15}
н/о н/о +8.4 +5.7 83 +3 +3 1002.1 997.3
13 17.10 В 13
{15}
н/о н/о +8.1 +5.9 86 +2 +2 1001.0 996.2
15 17.10 СВ 13
{17}
н/о н/о +9.3 +4.1 70 +4 +4 1002.7 997.9
16 17.10 СВ 14
{19}
н/о н/о +9.2 +4.6 73 +4 +4 1003.6 998.8
17 17.10 СВ 12
{17}
н/о н/о +9.0 +4.6 74 +4 +4 1004.7 999.9
18 17.10 СВ 11
{19}
н/о н/о +9.5 +4.9 73 +5 +5 1005.9 1001.1 +7.7 +9.6
20 17.10 СВ 15
{20}
н/о н/о +9.3 +3.9 69 +4 +4 1007.5 1002.7
19 17.10 СВ 14
{17}
н/о н/о +9.7 +4.1 68 +5 +5 1006.4 1001.6
21 17.10 СВ 11
{17}
н/о н/о +9.4 +3.4 66 +5 +5 1009.2 1004.4
22 17.10 СВ 7
{13}
н/о н/о +9.0 +4.6 74 +5 +5 1010.4 1005.6
23 17.10 С 11
{13}
н/о н/о +8.9 +4.9 76 +4 +4 1010.9 1006.1
00 18.10 С 8
{20}
н/о н/о +8.9 +5.5 79 +5 +5 1011.9 1007.1
02 18.10 СВ 8
{13}
н/о н/о +8.3 +5.8 84 +4 +4 1013.4 1008.5
01 18.10 С 7
{12}
н/о н/о +8.7 +5.1 78 +5 +5 1012.9 1008.0
03 18.10 С 6
{12}
н/о н/о +8.1 +5.9 86 +4 +4 1014.1 1009.2
04 18.10 С 7 н/о н/о +8.7 +5.1 78 +5 +5 1014.6 1009.7
05 18.10 СВ 4
{9}
н/о н/о +8.2 +6.2 87 +5 +5 1015.3 1010.4
06 18.10 В 5
{13}
н/о н/о +8.2 +6.0 86 +4 +4 1015.5 1010.6 +7.9 +9.8
08 18.10 В 4
{9}
н/о н/о +8.4 +5.7 83 +5 +5 1017.0 1012.1
07 18.10 В 3
{6}
н/о н/о +8.4 +6.0 85 +6 +6 1016.4 1011.5
09 18.10 В 3
{6}
н/о н/о +9.0 +5.4 78 +7 +7 1017.4 1012.5
10 18.10 В 3
{8}
н/о н/о +8.4 +5.5 82 +6 +6 1017.7 1012.8
11 18.10 В 3
{5}
н/о н/о +8.5 +5.3 80 +6 +6 1018.1 1013.2
12 18.10 В 1
{9}
н/о н/о +8.9 +4.7 75 +8 +8 1018.2 1013.3
14 18.10 В 3
{4}
н/о н/о +9.7 +4.9 72 +8 +8 1018.1 1013.2
13 18.10 СВ 3
{5}
н/о н/о +9.8 +4.6 70 +8 +8 1018.2 1013.3
15 18.10 СВ 8
{9}
н/о н/о +9.7 +4.3 69 +6 +6 1017.7 1012.8
16 18.10 СВ 7
{10}
н/о н/о +9.2 +4.8 74 +5 +5 1017.7 1012.8
17 18.10 СВ 7
{9}
н/о н/о +9.2 +4.6 73 +5 +5 1017.6 1012.7
18 18.10 СВ 7
{10}
н/о н/о +8.7 +4.9 77 +5 +5 1017.5 1012.6 +10.5
20 18.10 В 6
{10}
н/о н/о +8.6 +4.2 74 +5 +5 1017.1 1012.2
19 18.10 В 8
{10}
н/о н/о +8.4 +5.3 81 +4 +4 1017.3 1012.4
21 18.10 В 6
{7}
н/о н/о +8.5 +3.6 71 +5 +5 1017.0 1012.1
22 18.10 В 6
{7}
н/о н/о +8.2 +2.5 67 +4 +4 1016.8 1011.9
23 18.10 В 5
{7}
н/о н/о +8.4 +1.3 61 +5 +5 1016.9 1012.0
00 19.10 Ю 1
{10}
н/о н/о +8.6 +1.5 61 +8 +8 1017.1 1012.2
02 19.10 ЮВ 1
{6}
н/о н/о +8.6 -0.7 52 +8 +8 1016.9 1012.0
01 19.10 В 4
{4}
н/о н/о +8.2 +0.7 59 +5 +5 1017.0 1012.1
03 19.10 В 3
{5}
н/о н/о +8.8 +0.8 57 +7 +7 1016.6 1011.7
04 19.10 В 3
{4}
н/о н/о +8.9 +2.3 63 +7 +7 1016.2 1011.3
05 19.10 В 4
{5}
н/о н/о +8.5 +2.5 66 +6 +6 1016.1 1011.2
06 19.10 В 2
{6}
н/о н/о +8.8 +2.8 66 +7 +7 1016.1 1011.2 +7.5 +9.6
08 19.10 В 5
{6}
н/о н/о +8.9 +0.9 57 +6 +6 1016.2 1011.3
07 19.10 В 5
{7}
н/о н/о +8.5 +1.4 61 +5 +5 1016.2 1011.3
09 19.10 В 6
{7}
н/о н/о +9.2 -0.6 50 +6 +6 1015.9 1011.0
10 19.10 В 5
{6}
н/о н/о +9.8 -1.5 45 +7 +7 1015.9 1011.0
11 19.10 В 5
{5}
н/о н/о +10.1 +0.5 51 +7 +7 1015.6 1010.8
12 19.10 В 5
{7}
н/о н/о +10.5 -0.9 45 +8 +8 1015.2 1010.4
14 19.10 В 3
{5}
н/о н/о +11.4 -3.5 35 +10 +10 1014.9 1010.1
13 19.10 СВ 2
{6}
н/о н/о +11.2 -1.5 41 +10 +10 1015.1 1010.3
15 19.10 В 3
{5}
н/о н/о +11.1 -4.1 34 +10 +10 1014.6 1009.8
16 19.10 В 3
{5}
н/о н/о +10.8 -1.2 43 +9 +9 1014.3 1009.5
17 19.10 В 5
{6}
н/о н/о +10.3 -4.4 35 +8 +8 1014.0 1009.2
18 19.10 В 4
{6}
н/о н/о +10.2 -3.1 39 +8 +8 1013.5 1008.7 +8.3 +12.6
20 19.10 В 2
{4}
н/о н/о +10.2 -6.1 31 +9 +9 1013.2 1008.4
19 19.10 В 4
{7}
н/о н/о +10.6 -5.8 31 +9 +9 1013.1 1008.3
21 19.10 ЮВ 1
{5}
н/о н/о +10.4 -2.6 40 +11 +11 1013.1 1008.3
22 19.10 В 4
{5}
н/о н/о +10.0 -4.0 37 +8 +8 1012.6 1007.8
23 19.10 В 4
{7}
н/о н/о +10.1 -2.8 40 +8 +8 1012.0 1007.2
00 20.10 В 1
{7}
н/о н/о +9.5 +1.2 56 +9 +9 1011.7 1006.9
02 20.10 В 5
{6}
н/о н/о +9.0 +3.6 69 +6 +6 1010.9 1006.1
01 20.10 В 6
{7}
н/о н/о +9.2 +2.6 63 +6 +6 1011.4 1006.6
03 20.10 В 6
{8}
н/о н/о +9.4 +4.0 69 +6 +6 1010.3 1005.5
04 20.10 В 5
{6}
н/о н/о +10.2 +4.2 66 +7 +7 1009.7 1004.9
05 20.10 ЮВ 3
{6}
н/о н/о +10.8 +3.8 62 +9 +9 1009.4 1004.6
06 20.10 В 4
{8}
н/о н/о +10.6 +4.7 67 +8 +8 1008.9 1004.1 +8.8 +11.1
08 20.10 В 6
{8}
н/о н/о +11.0 +5.3 68 +8 +8 1008.8 1004.0
07 20.10 В 7
{8}
н/о н/о +10.9 +4.4 64 +8 +8 1008.5 1003.7
09 20.10 В 5
{7}
н/о н/о +12.0 +5.9 66 +10 +10 1009.1 1004.3
10 20.10 В 6
{7}
н/о н/о +11.4 +6.9 74 +9 +9 1008.8 1004.0
11 20.10 В 5
{8}
н/о н/о +12.0 +7.1 72 +10 +10 1008.7 1003.9
12 20.10 В 7
{9}
н/о н/о +12.5 +7.6 72 +10 +10 1008.4 1003.6
14 20.10 СВ 2
{5}
н/о н/о +13.2 +7.4 68 +13 +13 1009.2 1004.4
13 20.10 В 3
{8}
н/о н/о +14.4 +6.5 59 +14 +14 1008.7 1004.0
15 20.10 В 6
{8}
н/о н/о +13.7 +7.0 64 +12 +12 1008.7 1004.0
16 20.10 В 2
{9}
н/о н/о +14.1 +6.7 61 +14 +14 1008.9 1004.2
17 20.10 ЮВ 4
{7}
н/о н/о +14.9 +5.7 54 +14 +14 1009.0 1004.3
18 20.10 В 2
{9}
н/о н/о +13.2 +7.2 67 +13 +13 1009.8 1005.0 +10.3 +15.4
20 20.10 В 7
{8}
н/о н/о +12.5 +7.8 73 +10 +10 1009.8 1005.0
19 20.10 В 5
{6}
н/о н/о +11.7 +8.6 81 +9 +9 1009.8 1005.0
21 20.10 В 8
{9}
н/о н/о +13.0 +7.5 69 +10 +10 1009.6 1004.8
22 20.10 В 7
{9}
н/о н/о +13.6 +6.9 64 +11 +11 1009.7 1004.9
23 20.10 В 6
{8}
н/о н/о +14.0 +7.1 63 +12 +12 1010.1 1005.3
00 21.10 В 3
{9}
н/о н/о +13.6 +6.9 64 +13 +13 1010.4 1005.6
02 21.10 ЮВ 10
{12}
н/о н/о +13.8 +6.0 59 +11 +11 1009.6 1004.8
01 21.10 В 7
{8}
н/о н/о +12.8 +7.5 70 +10 +10 1010.3 1005.5
03 21.10 В 8
{12}
н/о н/о +14.3 +5.4 55 +12 +12 1009.6 1004.9
04 21.10 В 8
{9}
н/о н/о +14.1 +5.5 56 +12 +12 1009.5 1004.8
05 21.10 В 7
{10}
н/о н/о +14.3 +4.9 53 +12 +12 1009.8 1005.1
06 21.10 В 8
{12}
н/о н/о +14.3 +4.6 52 +12 +12 1009.4 1004.7 +11.6 +14.5
08 21.10 В 7
{11}
н/о н/о +13.5 +6.4 62 +11 +11 1009.8 1005.0
07 21.10 В 9
{12}
н/о н/о +14.1 +4.4 52 +12 +12 1009.5 1004.8
09 21.10 В 9
{12}
н/о н/о +14.3 +4.6 52 +12 +12 1009.3 1004.6
10 21.10 В 8
{13}
н/о н/о +14.5 +4.2 50 +12 +12 1009.2 1004.5
11 21.10 В 7
{11}
н/о н/о +14.6 +4.9 52 +13 +13 1009.2 1004.5
12 21.10 В 7
{13}
н/о н/о +14.5 +5.9 56 +13 +13 1009.0 1004.3
14 21.10 В 5
{10}
н/о н/о +14.4 +5.2 54 +13 +13 1009.2 1004.5
13 21.10 В 8
{9}
н/о н/о +15.1 +4.5 49 +13 +13 1008.9 1004.2
15 21.10 В 7
{9}
н/о н/о +14.3 +4.9 53 +12 +12 1008.9 1004.2
16 21.10 В 7
{9}
н/о н/о +14.9 +3.4 46 +13 +13 1008.7 1004.0
17 21.10 В 4
{7}
н/о н/о +14.8 +3.3 46 +14 +14 1008.8 1004.1
18 21.10 СВ 3
{10}
н/о н/о +13.8 +5.2 56 +13 +13 1009.2 1004.4 +13.4 +15.3
20 21.10 В 6
{9}
н/о н/о +14.5 +2.1 43 +13 +13 1008.9 1004.2
19 21.10 ЮВ 6
{8}
н/о н/о +14.4 +2.7 45 +13 +13 1008.5 1003.8
21 21.10 В 6
{8}
н/о н/о +13.6 +2.8 48 +12 +12 1009.0 1004.2
22 21.10 В 6
{9}
н/о н/о +13.2 +3.9 53 +11 +11 1009.0 1004.2
23 21.10 В 8
{10}
н/о н/о +12.0 +5.0 62 +9 +9 1008.7 1003.9
00 22.10 В 10
{12}
н/о н/о +12.1 +4.8 61 +9 +9 1007.9 1003.1

 

Местоположение метеостанции Krakenes (Норвегия): широта 62.03 долгота 4.99 высота над уровнем моря 75 м.

В архиве по умолчанию представлена погода в Krakenes за последнюю неделю. Архивные данные за месяц целиком и за предыдущие месяцы, начиная с января 2011 года, Вы можете получить, выбрав интересующий диапазон дат из раскрывающегося списка и нажав кнопку "Ввод!".

Внимание! Время в таблицах - всемирное. Для получения местного времени необходимо прибавить поправку, которая в Krakenes равна 1 ч.

Смотрите также архив погоды в соседних городах и на ближайших метеорологических станциях:

Погода в Bergen Lufthavn (Норвегия) (31 км)
Погода в Fiskabygd (Норвегия) (32 км)
Погода в Svinoy Fyr (Норвегия) (36 км)
Погода в Floro Lifthavn (Норвегия) (50 км)
Погода в Ytteroyane Fyr (Норвегия) (54 км)
Погода в Orsta-Volda Lufthavn (Норвегия) (59 км)
Погода в Sandane Lufthavn (Норвегия) (62 км)
Погода в Forde Tefre (Норвегия) (79 км)
Погода в Alesund IV (Норвегия) (80 км)
Погода в Forde Lifthavn (Норвегия) (82 км)

Пояснения к столбцам:

Ветер - указаны скорость ветра в м/с - средняя за 10 мин, порывы в срок и между сроками (в фигурных скобках) и направление, откуда дует ветер: С - северный, СВ - северо-восточный, В - восточный, ЮВ - юго-восточный, Ю - южный, ЮЗ - юго-западный, З - западный, СЗ - северо-западный.
Видимость - горизонтальная дальность видимости в метрах или километрах. При видимости от 1 до 10 км при отсутствии осадков обычно наблюдается дымка, при ухудшении видимости до 1 км и менее - туман. В сухую погоду видимость может ухудшаться дымом, пылью или мглою.
Явления - указаны атмосферные явления, наблюдавшиеся в срок или в последний час перед сроком; фигурными скобками обозначены явления, наблюдавшиеся между сроками (за 1-3 часа до срока); квадратными скобками обозначены град или гололедные отложения с указанием их диаметра в мм.
Облачность - указаны через наклонную черту общая и нижняя облачность в баллах и высота нижней границы облаков в метрах; квадратными скобками обозначены формы облаков: Ci - перистые, Cs - перисто-слоистые, Cc - перисто-кучевые, Ac - высококучевые, As - высокослоистые, Sc - слоисто-кучевые, Ns - слоисто-дождевые, Cu - кучевые, Cb - кучево-дождевые. Подробнее классификацию облаков см. в Атласе облаков (PDF).
T - Температура воздуха - температура, измеренная на высоте 2 м над землей.
Td - Температура точки росы - температура, при понижении до которой содержащийся в воздухе водяной пар достигнет насыщения.
f - Относительная влажность воздуха - влажноcть воздуха, измеренная на высоте 2 м над землей.
Te - Эффективная температура - температура, которую ощущает одетый по сезону человек в тени. Характеристика душности погоды. При расчете учитывается влияние влажности воздуха и скорости ветра на теплоощущения человека.
Tes - Эффективная температура на солнце - температура, которую ощущает человек, с поправкой на солнечный нагрев. Характеристика знойности погоды. Зависит от высоты солнца над горизонтом, облачности и скорости ветра. Ночью, в пасмурную погоду, а также при ветре 12 м/с и более поправка равна нулю.
P - Атмосферное давление - приведенное к уровню моря атмосферное давление.
Po - Атмосферное давление - измеренное на уровне метеостанции атмосферное давление.
Tmin - Минимальная температура - минимум температуры воздуха на высоте 2 м над землей.
Tmax - Максимальная температура - максимум температуры воздуха на высоте 2 м над землей.
R - Количество осадков - Количество выпавших осадков за период времени, мм. При наведении курсора мыши на число - период времени, за который выпало указанное количество осадков.
R24 - Количество осадков - Количество выпавших осадков за 24 часа, мм.
S - Снежный покров - Высота снежного покрова, см. При наведении курсора мыши на число - состояние снежного покрова и степень покрытия местности в баллах.